[[{"header":{"parameterUnit":"m.s-1","parameterCategory":1,"la1":30.2991,"la2":30.254,"lo1":-89.0895,"lo2":-89.0444,"dy":0.0017,"dx":0.0017,"nx":28,"ny":28,"refTime":"2023-03-17T21:00:00:Z","depth":0,"parameterNumber":2,"parameterNumberName":"U-component_of_WINDS"},"data":[0,0,0,0,0,0,0,0,0,0,0,0,0,0,0,0,0,0,0,0,0,0,0,0,0,0,0,0,0,0,0,0,0,0,0,0,0,0,0,0,0,0,0,0,0,0,0,0,0,0,0,0,0,0,0,0,0,0,0.4459,0.4459,0,0.4448,0.4448,0.4448,0.4456,0.4456,0.4457,0.4457,0.4444,0.4444,0.4443,0,0,0,0,0,0,0,0,0,0,0,0,0,0.4489,0.4488,0.4459,0.4459,0.4459,0.4448,0.4448,0.4448,0.4456,0.4456,0.4457,0.4457,0.4445,0.4444,0.4443,0,0,0,0,0,0,0,0,0,0,0,0,0,0.4476,0.4488,0.4459,0.4462,0.4462,0.4448,0.4448,0.4448,0.4456,0.4456,0.4457,0.4458,0.4445,0.4444,0.4443,0.4425,0,0,0.444,0.4439,0,0,0,0,0,0,0,0,0.4477,0.4475,0.4462,0.4462,0.4462,0.4454,0.4453,0.444,0.4456,0.4458,0.4457,0.4458,0.4447,0.4446,0.4443,0.4425,0.4424,0.444,0.4439,0.4439,0.4438,0,0,0,0,0,0,0,0.4478,0.4476,0.4455,0.4462,0.4462,0.4464,0.4463,0.4451,0.445,0.4458,0.4459,0.4457,0.4447,0.4443,0.4442,0.4424,0.444,0.4439,0.4438,0.4438,0.4392,0.4391,0,0,0,0,0,0,0.4478,0.4476,0.4455,0.4454,0.4471,0.4463,0.4461,0.4456,0.445,0.4449,0.4457,0.4458,0.4445,0.4443,0.4442,0.4421,0.4439,0.4438,0.4437,0.4393,0.4392,0.4391,0,0,0,0,0,0,0.4479,0.4477,0.4456,0.4466,0.4463,0.4462,0.4455,0.4455,0.4452,0.4449,0.4449,0.4453,0.4445,0.4443,0.443,0.4421,0.4437,0.4436,0.4393,0.4392,0.4391,0.4379,0,0,0,0,0,0,0.448,0.4477,0.447,0.4465,0.4463,0.4443,0.4455,0.4455,0.445,0.4451,0.4445,0.4445,0.4446,0.4431,0.4429,0.442,0.4435,0.4394,0.4393,0.4392,0.438,0.4378,0.4376,0,0,0,0,0,0.4481,0.4466,0.4469,0.4467,0.4454,0.4443,0.4441,0.4443,0.4449,0.4442,0.4441,0.4445,0.4422,0.443,0.4427,0.4417,0.4395,0.4393,0.4392,0.4381,0.4378,0.4376,0,0,0,0,0,0,0.4469,0.4466,0.4469,0.4453,0.4448,0.4444,0.4436,0.4439,0.4432,0.4434,0.4436,0.4434,0.442,0.4417,0.4426,0.44,0.4409,0.4407,0.4402,0.4399,0.4397,0.4398,0.4435,0,0,0,0,0,0.4465,0.4456,0.4454,0.444,0.4437,0.4437,0.4432,0.4434,0.4429,0.4427,0.4424,0.4419,0.4411,0.4405,0.4397,0.438,0.4379,0.4373,0.437,0.4369,0.4366,0.4358,0.4355,0.4387,0.4387,0.4387,0,0,0.4456,0.4453,0.4447,0.4437,0.4434,0.4425,0.4435,0.4425,0.4418,0.4425,0.4412,0.441,0.4405,0.4389,0.4382,0.4387,0.4358,0.4367,0.4365,0.4364,0.4356,0.4353,0.435,0.4386,0.4386,0.4386,0,0,0.4434,0.4431,0.4419,0.4416,0.4411,0.4411,0.4408,0.4404,0.4403,0.439,0.4395,0.4387,0.4373,0.4369,0.4365,0.4343,0.4347,0.4341,0.4329,0.432,0.4317,0.4315,0.4307,0.4304,0.4339,0.4339,0.4339,0,0.4423,0.4409,0.4412,0.4402,0.4398,0.4404,0.4392,0.4389,0.4381,0.4378,0.4384,0.4366,0.4363,0.4347,0.4342,0.4339,0.4335,0.4341,0.4318,0.4315,0.4313,0.4306,0.4303,0.4338,0.4338,0.4338,0.4338,0,0.4396,0.4387,0.4378,0.4371,0.4366,0.4355,0.4356,0.435,0.4353,0.4353,0.434,0.4336,0.4328,0.4325,0.4327,0.4309,0.4312,0.4318,0.4326,0.4309,0.4302,0.4299,0.4337,0.4337,0.4338,0.4338,0,0,0.4365,0.4361,0.4358,0.4355,0.435,0.4343,0.4333,0.4326,0.4321,0.4316,0.4307,0.4295,0.4301,0.4296,0.4298,0.4291,0.4274,0.4297,0.4297,0.4292,0.4254,0.4249,0.4246,0.4277,0.4276,0.4276,0.4254,0,0.4343,0.4325,0.4327,0.431,0.4302,0.4309,0.4299,0.4296,0.4296,0.4288,0.4288,0.428,0.4288,0.4285,0.4278,0.4277,0.4266,0.4279,0.4268,0.4268,0.4268,0.4242,0.4237,0.4216,0.4251,0.4251,0.4251,0,0.4314,0.4309,0.429,0.4288,0.4284,0.4276,0.427,0.4263,0.426,0.426,0.4256,0.4259,0.4249,0.4259,0.4245,0.4254,0.425,0.4249,0.4248,0.4246,0.4257,0.4239,0.421,0.4207,0.4246,0.4247,0.4247,0,0.4293,0.4281,0.4269,0.4266,0.4263,0.4257,0.4256,0.4253,0.4248,0.4243,0.424,0.4234,0.423,0.4225,0.4227,0.4234,0.4212,0.4222,0.4212,0.4212,0.4206,0.4206,0.4175,0.4204,0.4205,0.4205,0.4205,0,0.4267,0.4255,0.4259,0.4251,0.4239,0.4243,0.423,0.4229,0.4227,0.4219,0.4225,0.4218,0.4221,0.4214,0.4215,0.4203,0.4202,0.4202,0.4202,0.4201,0.42,0.4197,0.4198,0.4204,0.4204,0.4204,0.4204,0,0.4241,0.4243,0.423,0.4228,0.4228,0.4218,0.4217,0.421,0.4211,0.4201,0.4199,0.42,0.4192,0.4194,0.4185,0.4186,0.4171,0.4174,0.4172,0.4173,0.4162,0.4162,0.4127,0.4122,0.4155,0.4155,0.4155,0,0.4224,0.4215,0.4213,0.4208,0.4207,0.4199,0.4195,0.4199,0.4194,0.419,0.4183,0.4176,0.417,0.4158,0.4157,0.4151,0.4153,0.4141,0.4152,0.4151,0.4152,0.4152,0.4151,0.4138,0.4138,0.4138,0.4137,0,0.4193,0.4195,0.4189,0.4183,0.4178,0.4174,0.417,0.4166,0.417,0.4164,0.4156,0.4152,0.4144,0.4136,0.413,0.4129,0.4134,0.4134,0.4131,0.4129,0.4129,0.4128,0.4166,0.4135,0.4135,0.4135,0.4135,0.4135,0.417,0.4163,0.4161,0.4154,0.4152,0.4148,0.4142,0.4142,0.4136,0.4129,0.4132,0.4123,0.4121,0.4114,0.4111,0.4104,0.4109,0.4105,0.4104,0.4102,0.4101,0.4131,0.4104,0.4104,0.4104,0.4104,0.4104,0,0.414,0.4139,0.4133,0.4127,0.4122,0.4128,0.4125,0.412,0.4112,0.4109,0.4104,0.4095,0.4088,0.4088,0.4082,0.4077,0.4079,0.4075,0.4075,0.4074,0.4097,0.41,0.4073,0.4073,0.4073,0.4073,0.4073,0.4073,0.4123,0.4111,0.4113,0.41,0.41,0.4091,0.4088,0.4085,0.4083,0.4074,0.4068,0.4069,0.4067,0.4061,0.4055,0.4055,0.4052,0.4047,0.4048,0.407,0.4073,0.4075,0.4078,0.4047,0.4047,0.4026,0.4026,0.4025]},{"header":{"parameterUnit":"m.s-1","parameterCategory":1,"la1":30.2991,"la2":30.254,"lo1":-89.0895,"lo2":-89.0444,"dy":0.0017,"dx":0.0017,"nx":28,"ny":28,"refTime":"2023-03-17T21:00:00:Z","depth":0,"parameterNumber":3,"parameterNumberName":"V-component_of_WINDS"},"data":[0,0,0,0,0,0,0,0,0,0,0,0,0,0,0,0,0,0,0,0,0,0,0,0,0,0,0,0,0,0,0,0,0,0,0,0,0,0,0,0,0,0,0,0,0,0,0,0,0,0,0,0,0,0,0,0,0,0,-5.9852,-5.9853,0,-5.991,-5.9911,-5.9912,-5.9887,-5.9886,-5.9885,-5.9883,-5.9938,-5.9941,-5.9944,0,0,0,0,0,0,0,0,0,0,0,0,0,-5.9716,-5.9719,-5.9852,-5.9853,-5.9853,-5.991,-5.9911,-5.9912,-5.9888,-5.9886,-5.9884,-5.9883,-5.9937,-5.9941,-5.9944,0,0,0,0,0,0,0,0,0,0,0,0,0,-5.9775,-5.9719,-5.9852,-5.9848,-5.9849,-5.991,-5.9911,-5.9912,-5.9888,-5.9886,-5.9884,-5.9882,-5.9936,-5.994,-5.9944,-6.0011,0,0,-5.9957,-5.9959,0,0,0,0,0,0,0,0,-5.9771,-5.978,-5.9848,-5.9849,-5.9849,-5.989,-5.9883,-5.9945,-5.9889,-5.9873,-5.9883,-5.9881,-5.9923,-5.9928,-5.9944,-6.0014,-6.0016,-5.9957,-5.996,-5.9962,-5.9963,0,0,0,0,0,0,0,-5.9767,-5.9777,-5.9875,-5.9849,-5.985,-5.9843,-5.9849,-5.9895,-5.9909,-5.9874,-5.9873,-5.988,-5.9923,-5.994,-5.9945,-6.0017,-5.9957,-5.9961,-5.9963,-5.9965,-6.0147,-6.0149,0,0,0,0,0,0,-5.9764,-5.9774,-5.9873,-5.9877,-5.9805,-5.9847,-5.9854,-5.9879,-5.9908,-5.9911,-5.9882,-5.9879,-5.9934,-5.994,-5.9947,-6.0029,-5.9962,-5.9965,-5.9968,-6.0144,-6.0147,-6.015,0,0,0,0,0,0,-5.9761,-5.9773,-5.9871,-5.9825,-5.9837,-5.9851,-5.988,-5.9881,-5.9898,-5.9914,-5.9916,-5.9897,-5.9933,-5.9941,-5.9996,-6.003,-5.9967,-5.9971,-6.0142,-6.0145,-6.0148,-6.0192,0,0,0,0,0,0,-5.9757,-5.9772,-5.9798,-5.9826,-5.9839,-5.992,-5.9882,-5.9884,-5.9905,-5.9902,-5.9929,-5.9931,-5.9932,-5.999,-6.0,-6.0035,-5.9974,-6.0139,-6.0143,-6.0147,-6.0187,-6.0196,-6.0204,0,0,0,0,0,-5.9752,-5.9807,-5.98,-5.9812,-5.9873,-5.9922,-5.993,-5.9931,-5.9908,-5.9934,-5.9945,-5.993,-6.0025,-5.9996,-6.0007,-6.0043,-6.0136,-6.0142,-6.0147,-6.0184,-6.0195,-6.0204,0,0,0,0,0,0,-5.978,-5.981,-5.9803,-5.9868,-5.9893,-5.9918,-5.9951,-5.9942,-5.9973,-5.9968,-5.9967,-5.9973,-6.0031,-6.0042,-6.001,-6.011,-6.0077,-6.0085,-6.0101,-6.0112,-6.012,-6.0116,-5.9978,0,0,0,0,0,-5.9794,-5.9834,-5.9857,-5.9912,-5.9925,-5.9936,-5.9958,-5.9957,-5.9982,-5.9992,-6.0007,-6.0031,-6.0066,-6.0089,-6.0122,-6.0189,-6.0195,-6.0219,-6.0228,-6.0234,-6.0241,-6.0279,-6.029,-6.0167,-6.0167,-6.0167,0,0,-5.9823,-5.9844,-5.9868,-5.9918,-5.9937,-5.9977,-5.9945,-5.9988,-6.0017,-5.9998,-6.0052,-6.0064,-6.009,-6.0152,-6.018,-6.0164,-6.0277,-6.0241,-6.0246,-6.025,-6.0285,-6.0297,-6.0307,-6.0171,-6.017,-6.0169,0,0,-5.9896,-5.9916,-5.9965,-5.9986,-6.0017,-6.0024,-6.0036,-6.0063,-6.0071,-6.0126,-6.0113,-6.0147,-6.0207,-6.0228,-6.0246,-6.0329,-6.0317,-6.034,-6.0383,-6.042,-6.043,-6.0438,-6.0469,-6.048,-6.0346,-6.0347,-6.0347,0,-5.9927,-5.9989,-5.9991,-6.0036,-6.0058,-6.0045,-6.0095,-6.0114,-6.0153,-6.0169,-6.015,-6.0228,-6.0244,-6.0312,-6.0332,-6.0347,-6.036,-6.0337,-6.0428,-6.0437,-6.0445,-6.0474,-6.0486,-6.0349,-6.0349,-6.0349,-6.0348,0,-6.0026,-6.0069,-6.0104,-6.0146,-6.0172,-6.0219,-6.0228,-6.0254,-6.0251,-6.026,-6.0317,-6.0337,-6.0375,-6.039,-6.0387,-6.0458,-6.0447,-6.0428,-6.0395,-6.046,-6.0487,-6.0498,-6.0353,-6.0352,-6.0351,-6.0351,0,0,-6.0117,-6.0162,-6.0175,-6.0194,-6.0228,-6.0261,-6.0307,-6.0347,-6.037,-6.0397,-6.0436,-6.0489,-6.0473,-6.0494,-6.0492,-6.0525,-6.0591,-6.0502,-6.0503,-6.0519,-6.0672,-6.0686,-6.0699,-6.0583,-6.0585,-6.0587,-6.067,0,-6.0194,-6.0278,-6.0282,-6.0358,-6.0398,-6.0387,-6.0428,-6.0452,-6.0463,-6.0497,-6.0507,-6.0545,-6.0521,-6.0534,-6.0565,-6.0577,-6.0622,-6.057,-6.0619,-6.0621,-6.0614,-6.0714,-6.0728,-6.0806,-6.0681,-6.0683,-6.0684,0,-6.0294,-6.0329,-6.041,-6.044,-6.0457,-6.0494,-6.0531,-6.0564,-6.0593,-6.0598,-6.0622,-6.0617,-6.0664,-6.0629,-6.0694,-6.0659,-6.0679,-6.0688,-6.0691,-6.0696,-6.0657,-6.0722,-6.083,-6.0843,-6.0701,-6.0699,-6.0698,0,-6.0355,-6.0421,-6.0478,-6.0495,-6.0532,-6.0558,-6.0574,-6.06,-6.0625,-6.0657,-6.0672,-6.0709,-6.0729,-6.0757,-6.0761,-6.0735,-6.0827,-6.0792,-6.0832,-6.0833,-6.0852,-6.0851,-6.0967,-6.0864,-6.0864,-6.0864,-6.0863,0,-6.0441,-6.0491,-6.0506,-6.0541,-6.0597,-6.0602,-6.0656,-6.067,-6.0694,-6.0732,-6.0723,-6.0758,-6.0761,-6.0797,-6.0801,-6.0855,-6.0863,-6.0869,-6.0869,-6.087,-6.087,-6.0884,-6.0879,-6.0867,-6.0866,-6.0866,-6.0865,0,-6.0517,-6.053,-6.0592,-6.0623,-6.0632,-6.0672,-6.0697,-6.0731,-6.0741,-6.0788,-6.0799,-6.0815,-6.0857,-6.0864,-6.0912,-6.0915,-6.098,-6.0974,-6.0972,-6.0971,-6.1012,-6.1009,-6.1141,-6.1159,-6.1044,-6.1045,-6.1046,0,-6.0572,-6.061,-6.0646,-6.0672,-6.0691,-6.0731,-6.0757,-6.0762,-6.0789,-6.0825,-6.0855,-6.0896,-6.093,-6.0997,-6.1012,-6.1049,-6.1045,-6.1089,-6.105,-6.1051,-6.1047,-6.1045,-6.105,-6.1096,-6.1098,-6.1099,-6.1099,0,-6.0667,-6.0672,-6.071,-6.0752,-6.0783,-6.0815,-6.0845,-6.0866,-6.0875,-6.0906,-6.095,-6.0976,-6.1028,-6.1069,-6.1107,-6.1122,-6.1113,-6.1112,-6.1123,-6.1125,-6.1122,-6.1126,-6.0993,-6.1108,-6.1108,-6.1107,-6.1106,-6.1106,-6.0735,-6.077,-6.0802,-6.0845,-6.0869,-6.0898,-6.0932,-6.0948,-6.0985,-6.1029,-6.1029,-6.1078,-6.1106,-6.1156,-6.1174,-6.1212,-6.1198,-6.1214,-6.1218,-6.1223,-6.1227,-6.1116,-6.1218,-6.1218,-6.1218,-6.1218,-6.1217,0,-6.0832,-6.0852,-6.0892,-6.0936,-6.0971,-6.0961,-6.0994,-6.1023,-6.1067,-6.1095,-6.1129,-6.118,-6.1221,-6.124,-6.128,-6.1306,-6.1303,-6.1317,-6.1315,-6.1319,-6.1237,-6.1224,-6.1319,-6.1319,-6.1319,-6.1319,-6.1319,-6.1319,-6.0886,-6.0945,-6.0954,-6.1025,-6.1045,-6.1094,-6.1115,-6.1141,-6.1164,-6.1223,-6.1258,-6.127,-6.1295,-6.1337,-6.1374,-6.1378,-6.1393,-6.1409,-6.1412,-6.1335,-6.1324,-6.1315,-6.1302,-6.1412,-6.1412,-6.1491,-6.1491,-6.1492]}]]